H1 CPF 1 NER 2019 8 6 9 7181 glonass128 H2 1106401 9128 37867 2019 8 6 0 0 0 2019 8 9 23 45 0 900 1 1 0 0 0 H9 10 0 58701 0.00000 0 15631244.243 14225454.420 -14206549.298 10 0 58701 900.00000 0 13895181.107 13424107.953 -16587642.090 10 0 58701 1800.00000 0 11844837.123 12666947.511 -18644886.930 10 0 58701 2700.00000 0 9520565.684 12004161.986 -20338099.384 10 0 58701 3600.00000 0 6973031.035 11478543.846 -21634237.321 10 0 58701 4500.00000 0 4261325.028 11123601.026 -22508053.304 10 0 58701 5400.00000 0 1450732.931 10962082.451 -22942589.209 10 0 58701 6300.00000 0 -1389757.590 11004980.208 -22929503.380 10 0 58701 7200.00000 0 -4190099.162 11251050.425 -22469224.304 10 0 58701 8100.00000 0 -6881867.922 11686872.398 -21570928.658 10 0 58701 9000.00000 0 -9400874.766 12287442.225 -20252345.189 10 0 58701 9900.00000 0 -11689595.560 13017274.333 -18539389.569 10 0 58701 10800.00000 0 -13699319.534 13831962.551 -16465638.740 10 0 58701 11700.00000 0 -15391927.416 14680133.040 -14071656.421 10 0 58701 12600.00000 0 -16741226.895 15505704.957 -11404184.399 10 0 58701 13500.00000 0 -17733792.059 16250362.058 -8515216.648 10 0 58701 14400.00000 0 -18369274.600 16856129.968 -5460975.488 10 0 58701 15300.00000 0 -18660176.827 17267949.946 -2300810.709 10 0 58701 16200.00000 0 -18631099.135 17436140.587 903956.227 10 0 58701 17100.00000 0 -18317496.416 17318644.276 4091220.170 10 0 58701 18000.00000 0 -17763998.026 16882964.634 7199289.281 10 0 58701 18900.00000 0 -17022363.702 16107714.640 10168068.338 10 0 58701 19800.00000 0 -16149162.359 14983711.508 12940206.297 10 0 58701 20700.00000 0 -15203271.506 13514573.522 15462187.056 10 0 58701 21600.00000 0 -14243301.800 11716794.501 17685343.969 10 0 58701 22500.00000 0 -13325053.693 9619292.977 19566780.321 10 0 58701 23400.00000 0 -12499111.248 7262454.527 21070179.800 10 0 58701 24300.00000 0 -11808672.209 4696705.993 22166493.204 10 0 58701 25200.00000 0 -11287703.456 1980679.099 22834489.685 10 0 58701 26100.00000 0 -10959497.678 -820962.573 23061163.043 10 0 58701 27000.00000 0 -10835690.737 -3639945.855 22841985.879 10 0 58701 27900.00000 0 -10915780.633 -6406962.042 22181006.720 10 0 58701 28800.00000 0 -11187168.682 -9054288.788 21090787.592 10 0 58701 29700.00000 0 -11625722.395 -11518353.661 19592181.987 10 0 58701 30600.00000 0 -12196838.160 -13742135.069 17713955.733 10 0 58701 31500.00000 0 -12856961.290 -15677301.946 15492255.957 10 0 58701 32400.00000 0 -13555501.709 -17286003.836 12969936.073 10 0 58701 33300.00000 0 -14237066.708 -18542236.513 10195747.555 10 0 58701 34200.00000 0 -14843918.175 -19432725.209 7223412.153 10 0 58701 35100.00000 0 -15318551.494 -19957287.220 4110590.958 10 0 58701 36000.00000 0 -15606287.159 -20128657.132 917769.260 10 0 58701 36900.00000 0 -15657764.625 -19971780.521 -2292921.349 10 0 58701 37800.00000 0 -15431231.206 -19522604.675 -5458920.401 10 0 58701 38700.00000 0 -14894526.735 -18826416.588 -8518470.840 10 0 58701 39600.00000 0 -14026677.201 -17935798.301 -11411840.574 10 0 58701 40500.00000 0 -12819026.964 -16908286.503 -14082507.629 10 0 58701 41400.00000 0 -11275858.767 -15803836.477 -16478283.827 10 0 58701 42300.00000 0 -9414472.892 -14682199.182 -18552352.957 10 0 58701 43200.00000 0 -7264720.094 -13600324.245 -20264201.464 10 0 58701 44100.00000 0 -4868006.629 -12609900.441 -21580422.047 10 0 58701 45000.00000 0 -2275812.574 -11755139.273 -22475373.423 10 0 58701 45900.00000 0 452214.464 -11070896.439 -22931682.890 10 0 58701 46800.00000 0 3250509.958 -10581211.159 -22940581.856 10 0 58701 47700.00000 0 6050092.443 -10298324.966 -22502068.117 10 0 58701 48600.00000 0 8781207.576 -10222220.686 -21624892.549 10 0 58701 49500.00000 0 11376005.204 -10340699.741 -20326371.485 10 0 58701 50400.00000 0 13771137.245 -10629992.763 -18632029.725 10 0 58701 51300.00000 0 15910168.117 -11055875.647 -16575082.545 10 0 58701 52200.00000 0 17745697.852 -11575241.721 -14195768.214 10 0 58701 53100.00000 0 19241110.481 -12138061.553 -11540545.509 10 0 58701 54000.00000 0 20371876.643 -12689645.707 -8661173.188 10 0 58701 54900.00000 0 21126358.398 -13173113.474 -5613690.510 10 0 58701 55800.00000 0 21506085.320 -13531962.276 -2457319.691 10 0 58701 56700.00000 0 21525493.286 -13712628.896 746687.681 10 0 58701 57600.00000 0 21211139.784 -13666934.520 3936237.516 10 0 58701 58500.00000 0 20600431.190 -13354311.087 7049590.260 10 0 58701 59400.00000 0 19739917.486 -12743716.071 10026545.368 10 0 58701 60300.00000 0 18683227.313 -11815156.204 12809591.097 10 0 58701 61200.00000 0 17488730.609 -10560757.197 15344998.566 10 0 58701 62100.00000 0 16217026.662 -8985335.407 17583840.484 10 0 58701 63000.00000 0 14928361.944 -7106447.871 19482916.710 10 0 58701 63900.00000 0 13680084.422 -4953918.451 21005570.556 10 0 58701 64800.00000 0 12524239.054 -2568858.951 22122381.955 10 0 58701 65700.00000 0 11505403.073 -2224.389 22811725.676 10 0 58701 66600.00000 0 10658849.766 2687039.666 23060184.994 10 0 58701 67500.00000 0 10009116.026 5434183.457 22862813.479 10 0 58701 68400.00000 0 9569032.662 8171085.350 22223239.928 10 0 58701 69300.00000 0 9339257.804 10828832.131 21153613.764 10 0 58701 70200.00000 0 9308333.415 13340343.025 19674390.761 10 0 58701 71100.00000 0 9453263.637 15642930.849 17813961.443 10 0 58701 72000.00000 0 9740592.352 17680695.436 15608127.231 10 0 58701 72900.00000 0 10127936.541 19406650.641 13099432.161 10 0 58701 73800.00000 0 10565912.807 20784496.363 10336360.758 10 0 58701 74700.00000 0 11000377.466 21789960.817 7372415.648 10 0 58701 75600.00000 0 11374886.734 22411655.700 4265091.151 10 0 58701 76500.00000 0 11633273.365 22651406.742 1074761.713 10 0 58701 77400.00000 0 11722230.281 22524043.985 -2136493.469 10 0 58701 78300.00000 0 11593790.472 22056659.073 -5306106.505 10 0 58701 79200.00000 0 11207596.101 21287359.602 -8372252.930 10 0 58701 80100.00000 0 10532858.065 20263572.465 -11275074.313 10 0 58701 81000.00000 0 9549920.160 19039967.776 -13957865.728 10 0 58701 81900.00000 0 8251358.625 17676091.712 -16368202.935 10 0 58701 82800.00000 0 6642567.861 16233809.415 -18458985.216 10 0 58701 83700.00000 0 4741805.241 14774667.505 -20189371.736 10 0 58701 84600.00000 0 2579691.319 13357289.229 -21525591.745 10 0 58701 85500.00000 0 198185.405 12034913.796 -22441611.671 10 0 58702 0.00000 0 -2350920.884 10853184.902 -22919645.609 10 0 58702 900.00000 0 -5007929.112 9848282.680 -22950499.151 10 0 58702 1800.00000 0 -7707496.647 9045477.104 -22533740.222 10 0 58702 2700.00000 0 -10381141.802 8458164.753 -21677694.314 10 0 58702 3600.00000 0 -12959885.554 8087426.414 -20399265.330 10 0 58702 4500.00000 0 -15376918.873 7922123.686 -18723586.731 10 0 58702 5400.00000 0 -17570184.099 7939527.589 -16683511.215 10 0 58702 6300.00000 0 -19484762.800 8106450.304 -14318950.305 10 0 58702 7200.00000 0 -21074971.089 8380829.753 -11676078.156 10 0 58702 8100.00000 0 -22306076.282 8713697.721 -8806416.457 10 0 58702 9000.00000 0 -23155565.067 9051446.386 -5765819.374 10 0 58702 9900.00000 0 -23613912.419 9338296.010 -2613379.380 10 0 58702 10800.00000 0 -23684821.767 9518858.587 589724.085 10 0 58702 11700.00000 0 -23384929.037 9540688.814 3781410.378 10 0 58702 12600.00000 0 -22742985.492 9356714.942 6899894.730 10 0 58702 13500.00000 0 -21798555.818 8927447.618 9884873.869 10 0 58702 14400.00000 0 -20600287.594 8222874.636 12678678.040 10 0 58702 15300.00000 0 -19203825.562 7223962.916 15227368.300 10 0 58702 16200.00000 0 -17669458.180 5923705.580 17481759.407 10 0 58702 17100.00000 0 -16059594.297 4327670.769 19398350.391 10 0 58702 18000.00000 0 -14436174.209 2454029.381 20940146.611 10 0 58702 18900.00000 0 -12858121.518 333059.956 22077359.308 10 0 58702 19800.00000 0 -11378940.071 -1993849.924 22787970.744 10 0 58702 20700.00000 0 -10044554.280 -4475666.029 23058155.192 10 0 58702 21600.00000 0 -8891481.025 -7053575.408 22882548.351 10 0 58702 22500.00000 0 -7945407.964 -9663185.169 22264360.059 10 0 58702 23400.00000 0 -7220236.828 -12236963.786 21215327.520 10 0 58702 24300.00000 0 -6717631.434 -14706826.528 19755508.769 10 0 58702 25200.00000 0 -6427089.847 -17006760.181 17912918.612 10 0 58702 26100.00000 0 -6326538.725 -19075379.830 15723011.963 10 0 58702 27000.00000 0 -6383426.379 -20858312.520 13228022.297 10 0 58702 27900.00000 0 -6556270.216 -22310308.763 10476165.672 10 0 58702 28800.00000 0 -6796594.935 -23396993.225 7520723.740 10 0 58702 29700.00000 0 -7051180.897 -24096180.204 4419021.926 10 0 58702 30600.00000 0 -7264528.253 -24398697.077 1231321.458 10 0 58702 31500.00000 0 -7381432.473 -24308679.176 -1980353.475 10 0 58702 32400.00000 0 -7349561.264 -23843321.775 -5153430.392 10 0 58702 33300.00000 0 -7121921.998 -23032097.972 -8226020.450 10 0 58702 34200.00000 0 -6659112.802 -21915474.219 -11138142.082 10 0 58702 35100.00000 0 -5931259.122 -20543177.138 -13832910.725 10 0 58702 36000.00000 0 -4919550.830 -18972084.845 -16257669.431 10 0 58702 36900.00000 0 -3617311.982 -17263832.437 -18365036.235 10 0 58702 37800.00000 0 -2030555.444 -15482233.900 -20113846.097 10 0 58702 38700.00000 0 -177996.863 -13690630.535 -21469967.559 10 0 58702 39600.00000 0 1909474.015 -11949279.225 -22406977.082 10 0 58702 40500.00000 0 4189843.293 -10312891.811 -22906677.380 10 0 58702 41400.00000 0 6611500.283 -8828430.016 -22959449.531 10 0 58702 42300.00000 0 9115177.820 -7533249.043 -22564432.328 10 0 58702 43200.00000 0 11636223.650 -6453667.488 -21729526.136 10 0 58702 44100.00000 0 14107107.010 -5604022.586 -20471222.179 10 0 58702 45000.00000 0 16460054.697 -4986248.803 -18814261.842 10 0 58702 45900.00000 0 18629705.867 -4589995.103 -16791134.047 10 0 58702 46800.00000 0 20555674.423 -4393273.295 -14441421.890 10 0 58702 47700.00000 0 22184912.089 -4363607.233 -11811012.751 10 0 58702 48600.00000 0 23473774.231 -4459631.626 -8951188.635 10 0 58702 49500.00000 0 24389703.436 -4633070.421 -5917615.594 10 0 58702 50400.00000 0 24912462.210 -4831009.159 -2769252.998 10 0 58702 51300.00000 0 25034865.476 -4998363.815 432795.443 10 0 58702 52200.00000 0 24762984.596 -5080440.963 3626466.209 10 0 58702 53100.00000 0 24115816.777 -5025480.940 6749932.944 10 0 58702 54000.00000 0 23124435.853 -4787077.020 9742793.105 10 0 58702 54900.00000 0 21830661.718 -4326369.327 12547222.110 10 0 58702 55800.00000 0 20285305.197 -3613922.135 15109073.784 10 0 58702 56700.00000 0 18546062.158 -2631206.615 17378907.380 10 0 58702 57600.00000 0 16675144.479 -1371627.574 19312923.134 10 0 58702 58500.00000 0 14736745.757 158948.399 20873790.073 10 0 58702 59400.00000 0 12794445.821 1942185.686 22031351.963 10 0 58702 60300.00000 0 10908660.170 3947794.472 22763199.373 10 0 58702 61200.00000 0 9134238.427 6134547.746 23055097.995 10 0 58702 62100.00000 0 7518309.653 8451760.309 22901265.673 10 0 58702 63000.00000 0 6098462.396 10841171.054 22304492.907 10 0 58702 63900.00000 0 4901333.991 13239153.130 21276103.918 10 0 58702 64800.00000 0 3941667.182 15579163.167 19835757.880 10 0 58702 65700.00000 0 3221873.341 17794330.487 18011092.427 10 0 58702 66600.00000 0 2732121.125 19820080.722 15837214.229 10 0 58702 67500.00000 0 2450947.884 21596686.113 13356044.224 10 0 58702 68400.00000 0 2346369.456 23071636.793 10615527.807 10 0 58702 69300.00000 0 2377443.118 24201733.777 7668723.311 10 0 58702 70200.00000 0 2496218.991 24954815.067 4572784.763 10 0 58702 71100.00000 0 2649998.304 25311040.911 1387857.575 10 0 58702 72000.00000 0 2783803.196 25263682.156 -1824091.732 10 0 58702 72900.00000 0 2842952.929 24819376.363 -5000488.733 10 0 58702 73800.00000 0 2775636.042 23997838.819 -8079382.791 10 0 58702 74700.00000 0 2535367.463 22831038.936 -11000671.659 10 0 58702 75600.00000 0 2083223.917 21361875.587 -13707293.420 10 0 58702 76500.00000 0 1389760.114 19642406.742 -16146360.487 10 0 58702 77400.00000 0 436521.748 17731708.221 -18270211.524 10 0 58702 78300.00000 0 -782911.368 15693452.542 -20037358.947 10 0 58702 79200.00000 0 -2262398.394 13593310.975 -21413312.062 10 0 58702 80100.00000 0 -3983250.694 11496289.522 -22371258.637 10 0 58702 81000.00000 0 -5914785.791 9464112.169 -22892591.050 10 0 58702 81900.00000 0 -8015399.206 7552762.331 -22967266.648 10 0 58702 82800.00000 0 -10234109.028 5810286.347 -22593995.571 10 0 58702 83700.00000 0 -12512507.864 4274951.075 -21780253.142 10 0 58702 84600.00000 0 -14787039.552 2973832.050 -20542117.578 10 0 58702 85500.00000 0 -16991504.283 1921889.952 -18903937.443 10 0 58703 0.00000 0 -19059686.448 1121571.902 -16897836.780 10 0 58703 900.00000 0 -20927994.610 562951.713 -14563068.647 10 0 58703 1800.00000 0 -22538003.216 224399.836 -11945231.911 10 0 58703 2700.00000 0 -23838789.177 73752.340 -9095366.879 10 0 58703 3600.00000 0 -24788967.556 69925.880 -6068949.333 10 0 58703 4500.00000 0 -25358341.410 164908.575 -2924803.269 10 0 58703 5400.00000 0 -25529099.032 306040.404 276045.693 10 0 58703 6300.00000 0 -25296510.312 438485.489 3471553.603 10 0 58703 7200.00000 0 -24669095.244 507791.181 6599855.050 10 0 58703 8100.00000 0 -23668259.537 462425.845 9600450.825 10 0 58703 9000.00000 0 -22327414.312 256188.793 12415364.168 10 0 58703 9900.00000 0 -20690617.920 -149608.287 14990244.304 10 0 58703 10800.00000 0 -18810797.207 -784279.143 17275397.535 10 0 58703 11700.00000 0 -16747622.314 -1666297.277 19226727.688 10 0 58703 12600.00000 0 -14565122.825 -2802287.479 20806569.601 10 0 58703 13500.00000 0 -12329143.049 -4186516.614 21984401.395 10 0 58703 14400.00000 0 -10104740.344 -5800905.339 22737423.406 10 0 58703 15300.00000 0 -7953632.463 -7615561.334 23050993.811 10 0 58703 16200.00000 0 -5931797.698 -9589813.614 22918913.276 10 0 58703 17100.00000 0 -4087325.393 -11673707.247 22343553.248 10 0 58703 18000.00000 0 -2458604.541 -13809898.966 21335824.881 10 0 58703 18900.00000 0 -1072924.587 -15935877.747 19914988.056 10 0 58703 19800.00000 0 54453.860 -17986420.770 18108302.468 10 0 58703 20700.00000 0 920719.472 -19896184.814 15950525.459 10 0 58703 21600.00000 0 1535403.663 -21602326.911 13483264.034 10 0 58703 22500.00000 0 1919750.482 -23047045.873 10754191.257 10 0 58703 23400.00000 0 2105588.128 -24179938.518 7816140.205 10 0 58703 24300.00000 0 2133748.424 -24960071.248 4726091.370 10 0 58703 25200.00000 0 2052099.972 -25357678.572 1544072.019 10 0 58703 26100.00000 0 1913277.651 -25355415.179 -1668011.457 10 0 58703 27000.00000 0 1772204.757 -24949106.520 -4847585.289 10 0 58703 27900.00000 0 1683513.644 -24147963.903 -7932639.734 10 0 58703 28800.00000 0 1698975.783 -22974252.847 -10862954.656 10 0 58703 29700.00000 0 1865052.350 -21462426.993 -13581293.608 10 0 58703 30600.00000 0 2220671.758 -19657762.942 -16034541.204 10 0 58703 31500.00000 0 2795330.953 -17614553.167 -18174759.475 10 0 58703 32400.00000 0 3607603.536 -15393933.327 -19960140.865 10 0 58703 33300.00000 0 4664120.141 -13061436.129 -21355837.743 10 0 58703 34200.00000 0 5959065.970 -10684375.762 -22334651.130 10 0 58703 35100.00000 0 7474218.020 -8329173.906 -22877564.612 10 0 58703 36000.00000 0 9179521.056 -6058740.643 -22974112.903 10 0 58703 36900.00000 0 11034178.176 -3930020.827 -22622578.141 10 0 58703 37800.00000 0 12988209.640 -1991808.919 -21830010.831 10 0 58703 38700.00000 0 14984413.750 -282923.291 -20612075.991 10 0 58703 39600.00000 0 16960646.393 1169184.665 -18992728.774 10 0 58703 40500.00000 0 18852322.637 2349330.312 -17003727.229 10 0 58703 41400.00000 0 20595034.631 3254969.274 -14683993.164 10 0 58703 42300.00000 0 22127175.425 3896031.922 -12078834.988 10 0 58703 43200.00000 0 23392458.637 4294229.119 -9239049.063 10 0 58703 44100.00000 0 24342228.681 4481861.639 -6219918.244 10 0 58703 45000.00000 0 24937465.536 4500186.415 -3080128.175 10 0 58703 45900.00000 0 25150401.369 4397411.042 119376.843 10 0 58703 46800.00000 0 24965682.875 4226403.104 3316575.782 10 0 58703 47700.00000 0 24381032.489 4042212.172 6449567.548 10 0 58703 48600.00000 0 23407382.617 3899509.581 9457759.544 10 0 58703 49500.00000 0 22068478.891 3850053.800 12283025.910 10 0 58703 50400.00000 0 20399970.284 3940287.529 14870814.114 10 0 58703 51300.00000 0 18448024.770 4209166.621 17171180.038 10 0 58703 52200.00000 0 16267528.275 4686311.010 19139733.314 10 0 58703 53100.00000 0 13919941.324 5390554.189 20738476.456 10 0 58703 54000.00000 0 11470901.221 6328951.400 21936523.444 10 0 58703 54900.00000 0 8987667.512 7496287.922 22710685.515 10 0 58703 55800.00000 0 6536514.637 8875108.520 23045914.057 10 0 58703 56700.00000 0 4180177.529 10436268.082 22935592.842 10 0 58703 57600.00000 0 1975453.792 12139982.411 22381674.095 10 0 58703 58500.00000 0 -28940.003 13937337.736 21394655.268 10 0 58703 59400.00000 0 -1794170.483 15772198.819 19993395.845 10 0 58703 60300.00000 0 -3292674.171 17583438.911 18204776.050 10 0 58703 61200.00000 0 -4509071.216 19307401.065 16063201.990 10 0 58703 62100.00000 0 -5440567.803 20880490.153 13609964.526 10 0 58703 63000.00000 0 -6096829.671 22241788.617 10892461.941 10 0 58703 63900.00000 0 -6499330.869 23335586.937 7963299.448 10 0 58703 64800.00000 0 -6680204.031 24113722.362 4879281.284 10 0 58703 65700.00000 0 -6680639.509 24537626.514 1700313.800 10 0 58703 66600.00000 0 -6548900.262 24579993.812 -1511759.522 10 0 58703 67500.00000 0 -6338036.305 24225998.113 -4694368.306 10 0 58703 68400.00000 0 -6103395.990 23474003.691 -7785446.354 10 0 58703 69300.00000 0 -5900040.732 22335738.071 -10724658.124 10 0 58703 70200.00000 0 -5780174.578 20835917.214 -13454594.931 10 0 58703 71100.00000 0 -5790699.826 19011337.158 -15921915.641 10 0 58703 72000.00000 0 -5971004.763 16909469.400 -18078407.470 10 0 58703 72900.00000 0 -6351079.764 14586618.789 -19881944.448 10 0 58703 73800.00000 0 -6950043.794 12105721.658 -21297323.339 10 0 58703 74700.00000 0 -7775145.516 9533877.504 -22296959.503 10 0 58703 75600.00000 0 -8821282.572 6939718.826 -22861428.578 10 0 58703 76500.00000 0 -10071060.117 4390730.379 -22979843.217 10 0 58703 77400.00000 0 -11495386.231 1950631.103 -22650057.823 10 0 58703 78300.00000 0 -13054578.789 -323071.316 -21878697.994 10 0 58703 79200.00000 0 -14699936.358 -2381251.102 -20681015.083 10 0 58703 80100.00000 0 -16375705.961 -4184970.207 -19080569.956 10 0 58703 81000.00000 0 -18021363.788 -5706845.342 -17108753.489 10 0 58703 81900.00000 0 -19574111.908 -6931921.250 -14804154.554 10 0 58703 82800.00000 0 -20971485.167 -7858016.337 -12211789.291 10 0 58703 83700.00000 0 -22153958.264 -8495529.416 -9382208.041 10 0 58703 84600.00000 0 -23067443.418 -8866719.002 -6370498.498 10 0 58703 85500.00000 0 -23665574.136 -9004488.679 -3235205.595 10 0 58704 0.00000 0 -23911680.133 -8950732.620 -37189.937 10 0 58704 900.00000 0 -23780371.434 -8754313.456 3161553.048 10 0 58704 1800.00000 0 -23258667.743 -8468759.150 6299089.141 10 0 58704 2700.00000 0 -22346625.601 -8149777.537 9314735.023 10 0 58704 3600.00000 0 -21057440.450 -7852692.919 12150218.436 10 0 58704 4500.00000 0 -19417019.248 -7629912.744 14750787.742 10 0 58704 5400.00000 0 -17463042.817 -7528529.895 17066250.937 10 0 58704 6300.00000 0 -15243556.953 -7588160.268 19051925.786 10 0 58704 7200.00000 0 -12815150.554 -7839105.151 20669484.523 10 0 58704 8100.00000 0 -10240795.293 -8300914.427 21887678.676 10 0 58704 9000.00000 0 -7587434.751 -8981410.097 22682931.659 10 0 58704 9900.00000 0 -4923420.894 -9876210.920 23039788.926 10 0 58704 10800.00000 0 -2315901.629 -10968778.632 22951217.785 10 0 58704 11700.00000 0 171734.793 -12230985.165 22418751.266 10 0 58704 12600.00000 0 2482254.839 -13624179.099 21452472.761 10 0 58704 13500.00000 0 4566716.814 -15100709.247 20070840.661 10 0 58704 14400.00000 0 6386262.670 -16605844.411 18300354.695 10 0 58704 15300.00000 0 7913490.603 -18080011.652 16175068.398 10 0 58704 16200.00000 0 9133351.353 -19461261.750 13735954.843 10 0 58704 17100.00000 0 10043530.248 -20687860.330 11030135.606 10 0 58704 18000.00000 0 10654298.023 -21700896.899 8109985.830 10 0 58704 18900.00000 0 10987835.524 -22446802.326 5032131.066 10 0 58704 19800.00000 0 11077059.582 -22879668.058 1856354.132 10 0 58704 20700.00000 0 10963998.585 -22963267.775 -1355567.133 10 0 58704 21600.00000 0 10697785.930 -22672694.049 -4541068.524 10 0 58704 22500.00000 0 10332356.331 -21995538.284 -7638030.168 10 0 58704 23400.00000 0 9923943.265 -20932561.418 -10586003.848 10 0 58704 24300.00000 0 9528485.006 -19497824.481 -13327411.302 10 0 58704 25200.00000 0 9199051.036 -17718271.286 -15808688.169 10 0 58704 26100.00000 0 8983400.147 -15632779.286 -17981349.200 10 0 58704 27000.00000 0 8921775.995 -13290717.584 -19802952.135 10 0 58704 27900.00000 0 9045035.657 -10750072.469 -21237939.947 10 0 58704 28800.00000 0 9373192.253 -8075219.587 -22258343.811 10 0 58704 29700.00000 0 9914434.621 -5334436.907 -22844332.491 10 0 58704 30600.00000 0 10664666.274 -2597263.590 -22984597.247 10 0 58704 31500.00000 0 11607583.245 68183.694 -22676565.000 10 0 58704 32400.00000 0 12715287.160 2597824.192 -21926436.307 10 0 58704 33300.00000 0 13949406.816 4934046.799 -20749048.357 10 0 58704 34200.00000 0 15262679.754 7027862.776 -19167566.889 10 0 58704 35100.00000 0 16600925.850 8840688.586 -17213014.426 10 0 58704 36000.00000 0 17905328.434 10345686.164 -14923645.398 10 0 58704 36900.00000 0 19114925.641 11528606.879 -12344181.838 10 0 58704 37800.00000 0 20169206.257 12388106.818 -9524925.891 10 0 58704 38700.00000 0 21010700.322 12935523.437 -6520767.607 10 0 58704 39600.00000 0 21587455.435 13194126.206 -3390108.464 10 0 58704 40500.00000 0 21855295.122 13197875.929 -193722.278 10 0 58704 41400.00000 0 21779765.177 12989747.713 3006423.916 10 0 58704 42300.00000 0 21337687.444 12619690.281 6148365.969 10 0 58704 43200.00000 0 20518257.195 12142309.083 9171332.854 10 0 58704 44100.00000 0 19323639.438 11614371.424 12016908.764 10 0 58704 45000.00000 0 17769040.364 11092238.562 14630145.597 10 0 58704 45900.00000 0 15882251.698 10629332.141 16960605.865 10 0 58704 46800.00000 0 13702687.164 10273740.258 18963317.590 10 0 58704 47700.00000 0 11279950.835 10066062.307 20599624.557 10 0 58704 48600.00000 0 8671995.839 10037581.575 21837917.350 10 0 58704 49500.00000 0 5942948.163 10208841.018 22654232.720 10 0 58704 50400.00000 0 3160683.687 10588681.137 23032710.949 10 0 58704 51300.00000 0 394256.343 11173780.139 22965903.215 10 0 58704 52200.00000 0 -2288718.788 11948716.241 22454923.204 10 0 58704 53100.00000 0 -4824621.436 12886550.836 21509439.595 10 0 58704 54000.00000 0 -7156217.521 13949910.041 20147508.525 10 0 58704 54900.00000 0 -9234788.407 15092521.763 18395247.585 10 0 58704 55800.00000 0 -11021910.565 16261146.341 16286355.666 10 0 58704 56700.00000 0 -12490811.966 17397822.296 13861485.649 10 0 58704 57600.00000 0 -13627248.352 18442334.894 11167479.738 10 0 58704 58500.00000 0 -14429861.890 19334805.136 8256480.213 10 0 58704 59400.00000 0 -14910006.059 20018290.782 5184931.072 10 0 58704 60300.00000 0 -15091042.841 20441289.475 2012488.761 10 0 58704 61200.00000 0 -15007140.651 20560037.140 -1199137.318 10 0 58704 62100.00000 0 -14701622.906 20340502.663 -4387391.831 10 0 58704 63000.00000 0 -14224936.739 19759992.053 -7490103.810 10 0 58704 63900.00000 0 -13632328.082 18808291.513 -10446714.782 10 0 58704 64800.00000 0 -12981322.524 17488298.276 -13199479.118 10 0 58704 65700.00000 0 -12329120.152 15816109.984 -15694611.217 10 0 58704 66600.00000 0 -11730016.616 13820566.761 -17883355.077 10 0 58704 67500.00000 0 -11232961.776 11542263.734 -19722953.581 10 0 58704 68400.00000 0 -10879361.303 9032074.728 -21177497.064 10 0 58704 69300.00000 0 -10701216.120 6349249.003 -22218633.381 10 0 58704 70200.00000 0 -10719679.681 3559161.266 -22826125.013 10 0 58704 71100.00000 0 -10944094.891 730809.849 -22988242.124 10 0 58704 72000.00000 0 -11371551.498 -2065831.283 -22701984.154 10 0 58704 72900.00000 0 -11986982.195 -4762495.268 -21973126.296 10 0 58704 73800.00000 0 -12763792.429 -7295227.332 -20816090.913 10 0 58704 74700.00000 0 -13664995.914 -9606803.149 -19253647.622 10 0 58704 75600.00000 0 -14644806.377 -11648860.280 -17316449.271 10 0 58704 76500.00000 0 -15650616.690 -13383654.969 -15042414.247 10 0 58704 77400.00000 0 -16625280.362 -14785372.745 -12475968.641 10 0 58704 78300.00000 0 -17509597.885 -15840940.605 -9667164.383 10 0 58704 79200.00000 0 -18244902.178 -16550309.711 -6670691.742 10 0 58704 80100.00000 0 -18775633.719 -16926199.916 -3544806.501 10 0 58704 81000.00000 0 -19051796.904 -16993320.050 -350193.450 10 0 58704 81900.00000 0 -19031194.699 -16787099.671 2851211.288 10 0 58704 82800.00000 0 -18681348.457 -16351988.044 5997416.025 10 0 58704 83700.00000 0 -17981023.355 -15739393.763 9027564.542 10 0 58704 84600.00000 0 -16921296.584 -15005352.759 11883100.034 10 0 58704 85500.00000 0 -15506124.665 -14208023.087 14508880.470 99